| time (UTC) | temp F | wind direction | speed MPH | gust MPH | rain 1hr in | rain 24hr in | rain mn in | humidity % | barometer mb |
| 20260503190144 | 75 | 221 | 4.0 | 12.0 | 0.00 | 0.00 | 0.00 | 43 | 1014.7 |
| 20260503185124 | 74 | 228 | 6.0 | 13.0 | 0.00 | 0.00 | 0.00 | 40 | 1014.8 |
| 20260503184123 | 74 | 231 | 5.0 | 13.0 | 0.00 | 0.00 | 0.00 | 44 | 1014.9 |
| 20260503183123 | 74 | 232 | 5.0 | 11.0 | 0.00 | 0.00 | 0.00 | 47 | 1014.9 |
| 20260503182123 | 73 | 226 | 5.0 | 12.0 | 0.00 | 0.00 | 0.00 | 49 | 1014.9 |
| 20260503181123 | 71 | 173 | 4.0 | 10.0 | 0.00 | 0.00 | 0.00 | 55 | 1014.9 |
| 20260503180124 | 69 | 177 | 4.0 | 9.0 | 0.00 | 0.00 | 0.00 | 60 | 1015.0 |
| 20260503175122 | 68 | 194 | 4.0 | 8.0 | 0.00 | 0.00 | 0.00 | 61 | 1015.0 |
| 20260503174122 | 68 | 207 | 4.0 | 8.0 | 0.00 | 0.00 | 0.00 | 60 | 1015.0 |
| 20260503173143 | 67 | 208 | 3.0 | 8.0 | 0.00 | 0.00 | 0.00 | 63 | 1015.0 |
| 20260503172122 | 66 | 216 | 4.0 | 8.0 | 0.00 | 0.00 | 0.00 | 63 | 1015.0 |
| 20260503171122 | 68 | 182 | 3.0 | 8.0 | 0.00 | 0.00 | 0.00 | 59 | 1015.0 |
| 20260503170122 | 67 | 153 | 4.0 | 8.0 | 0.00 | 0.00 | 0.00 | 59 | 1015.2 |
| 20260503160124 | 66 | 174 | 3.0 | 6.0 | 0.00 | 0.00 | 0.00 | 62 | 1015.5 |
| 20260503150124 | 63 | 197 | 0.0 | 3.0 | 0.00 | 0.00 | 0.00 | 66 | 1015.5 |
| 20260503140124 | 54 | 360 | 0.0 | 0.0 | 0.00 | 0.00 | 0.00 | 84 | 1015.7 |
| 20260503131124 | 50 | 180 | 0.0 | 0.0 | 0.00 | 0.00 | 0.00 | 89 | 1015.4 |
| 20260503130124 | 50 | 19 | 1.0 | 3.0 | 0.00 | 0.00 | 0.00 | 89 | 1015.2 |
| 20260503120123 | 51 | 347 | 2.0 | 4.0 | 0.00 | 0.00 | 0.00 | 87 | 1015.2 |
| 20260503110124 | 52 | 35 | 0.0 | 3.0 | 0.00 | 0.00 | 0.00 | 86 | 1015.3 |
| 20260503100123 | 53 | 2 | 2.0 | 4.0 | 0.00 | 0.00 | 0.00 | 82 | 1015.4 |
| 20260503090124 | 55 | 352 | 2.0 | 4.0 | 0.00 | 0.00 | 0.00 | 81 | 1015.2 |
| 20260503081123 | 55 | 343 | 1.0 | 5.0 | 0.00 | 0.00 | 0.00 | 82 | 1015.0 |
| 20260503080124 | 55 | 315 | 0.0 | 0.0 | 0.00 | 0.00 | 0.00 | 82 | 1015.0 |
| 20260503072124 | 57 | 339 | 1.0 | 5.0 | 0.00 | 0.00 | 0.00 | 80 | 1015.0 |
| 20260503070122 | 58 | 23 | 0.0 | 0.0 | 0.00 | 0.00 | 0.00 | 79 | 1014.9 |
| 20260503060123 | 59 | 19 | 1.0 | 4.0 | 0.00 | 0.00 | 0.00 | 75 | 1014.5 |
| 20260503054123 | 59 | 351 | 2.0 | 3.0 | 0.00 | 0.00 | 0.00 | 74 | 1014.5 |
| 20260503053122 | 60 | 343 | 1.0 | 3.0 | 0.00 | 0.00 | 0.00 | 73 | 1014.5 |
| 20260503052122 | 60 | 360 | 0.0 | 0.0 | 0.00 | 0.00 | 0.00 | 72 | 1014.5 |
| 20260503051122 | 60 | 278 | 1.0 | 4.0 | 0.00 | 0.00 | 0.00 | 70 | 1014.5 |
| 20260503050124 | 61 | 360 | 0.0 | 0.0 | 0.00 | 0.00 | 0.00 | 69 | 1014.4 |
| 20260503045122 | 62 | 360 | 0.0 | 0.0 | 0.00 | 0.00 | 0.00 | 67 | 1014.3 |
| 20260503044143 | 62 | 45 | 0.0 | 0.0 | 0.00 | 0.00 | 0.00 | 68 | 1014.2 |
| 20260503043122 | 63 | 338 | 0.0 | 0.0 | 0.00 | 0.00 | 0.00 | 62 | 1014.2 |
| 20260503042123 | 64 | 23 | 0.0 | 0.0 | 0.00 | 0.00 | 0.00 | 60 | 1014.0 |
| 20260503041123 | 65 | 57 | 0.0 | 3.0 | 0.00 | 0.00 | 0.00 | 57 | 1014.0 |
| 20260503040122 | 66 | 53 | 0.0 | 4.0 | 0.00 | 0.00 | 0.00 | 55 | 1013.9 |
| 20260503035123 | 67 | 18 | 1.0 | 4.0 | 0.00 | 0.00 | 0.00 | 53 | 1013.8 |
| 20260503034122 | 68 | 322 | 2.0 | 5.0 | 0.00 | 0.00 | 0.00 | 51 | 1013.7 |
| 20260503033122 | 68 | 283 | 3.0 | 11.0 | 0.00 | 0.00 | 0.00 | 49 | 1013.7 |
| 20260503032122 | 68 | 289 | 4.0 | 11.0 | 0.00 | 0.00 | 0.00 | 48 | 1013.5 |
| 20260503031122 | 69 | 285 | 5.0 | 17.0 | 0.00 | 0.00 | 0.00 | 47 | 1013.7 |
| 20260503030123 | 69 | 274 | 4.0 | 10.0 | 0.00 | 0.00 | 0.00 | 47 | 1013.5 |
| 20260503025123 | 70 | 284 | 4.0 | 12.0 | 0.00 | 0.00 | 0.00 | 45 | 1013.5 |
| 20260503024122 | 71 | 325 | 4.0 | 10.0 | 0.00 | 0.00 | 0.00 | 43 | 1013.5 |
| 20260503023122 | 72 | 273 | 4.0 | 17.0 | 0.00 | 0.00 | 0.00 | 41 | 1013.5 |
| 20260503022122 | 73 | 264 | 4.0 | 13.0 | 0.00 | 0.00 | 0.00 | 40 | 1013.5 |
| 20260503021123 | 74 | 258 | 5.0 | 16.0 | 0.00 | 0.00 | 0.00 | 39 | 1013.5 |
| 20260503020122 | 74 | 266 | 5.0 | 18.0 | 0.00 | 0.00 | 0.00 | 39 | 1013.7 |
| 20260503015122 | 74 | 273 | 4.0 | 13.0 | 0.00 | 0.00 | 0.00 | 39 | 1013.8 |
| 20260503014122 | 75 | 282 | 5.0 | 18.0 | 0.00 | 0.00 | 0.00 | 38 | 1013.9 |
| 20260503013122 | 75 | 294 | 5.0 | 14.0 | 0.00 | 0.00 | 0.00 | 37 | 1013.9 |
| 20260503012123 | 75 | 216 | 5.0 | 16.0 | 0.00 | 0.00 | 0.00 | 37 | 1014.0 |
| 20260503011123 | 76 | 268 | 5.0 | 15.0 | 0.00 | 0.00 | 0.00 | 37 | 1014.0 |
| 20260503010122 | 75 | 249 | 5.0 | 18.0 | 0.00 | 0.00 | 0.00 | 38 | 1014.0 |
| 20260503005143 | 75 | 227 | 6.0 | 20.0 | 0.00 | 0.00 | 0.00 | 39 | 1014.3 |
| 20260503004122 | 74 | 212 | 6.0 | 19.0 | 0.00 | 0.00 | 0.00 | 40 | 1014.3 |
| 20260503003123 | 75 | 246 | 6.0 | 16.0 | 0.00 | 0.00 | 0.00 | 40 | 1014.3 |
| 20260503002123 | 75 | 229 | 6.0 | 18.0 | 0.00 | 0.00 | 0.00 | 39 | 1014.4 |
| 20260503001123 | 75 | 236 | 5.0 | 16.0 | 0.00 | 0.00 | 0.00 | 40 | 1014.5 |
| 20260503000144 | 75 | 245 | 6.0 | 14.0 | 0.00 | 0.00 | 0.00 | 41 | 1014.7 |
| 20260502235143 | 75 | 254 | 6.0 | 16.0 | 0.00 | 0.00 | 0.00 | 41 | 1014.9 |
| 20260502234122 | 76 | 235 | 5.0 | 15.0 | 0.00 | 0.00 | 0.00 | 41 | 1014.9 |
| 20260502233122 | 75 | 227 | 6.0 | 16.0 | 0.00 | 0.00 | 0.00 | 41 | 1014.9 |
| 20260502232122 | 75 | 306 | 6.0 | 16.0 | 0.00 | 0.00 | 0.00 | 41 | 1015.0 |
| 20260502231143 | 76 | 238 | 6.0 | 19.0 | 0.00 | 0.00 | 0.00 | 40 | 1015.0 |
| 20260502230123 | 75 | 254 | 5.0 | 18.0 | 0.00 | 0.00 | 0.00 | 40 | 1015.3 |
| 20260502225123 | 77 | 278 | 5.0 | 15.0 | 0.00 | 0.00 | 0.00 | 41 | 1015.5 |
| 20260502224122 | 77 | 268 | 4.0 | 10.0 | 0.00 | 0.00 | 0.00 | 42 | 1015.7 |
| 20260502223124 | 75 | 290 | 5.0 | 18.0 | 0.00 | 0.00 | 0.00 | 44 | 1015.7 |
| 20260502222143 | 74 | 241 | 5.0 | 14.0 | 0.00 | 0.00 | 0.00 | 45 | 1015.9 |
| 20260502221122 | 75 | 286 | 4.0 | 10.0 | 0.00 | 0.00 | 0.00 | 43 | 1015.9 |
| 20260502220123 | 75 | 279 | 4.0 | 13.0 | 0.00 | 0.00 | 0.00 | 44 | 1016.0 |
| 20260502215122 | 76 | 302 | 4.0 | 12.0 | 0.00 | 0.00 | 0.00 | 43 | 1016.3 |
| 20260502214122 | 75 | 328 | 4.0 | 11.0 | 0.00 | 0.00 | 0.00 | 45 | 1016.5 |
| 20260502213123 | 76 | 335 | 3.0 | 12.0 | 0.00 | 0.00 | 0.00 | 45 | 1016.5 |
| 20260502212122 | 75 | 314 | 3.0 | 8.0 | 0.00 | 0.00 | 0.00 | 47 | 1016.5 |
| 20260502211122 | 73 | 311 | 3.0 | 10.0 | 0.00 | 0.00 | 0.00 | 48 | 1016.8 |
| 20260502210122 | 72 | 282 | 3.0 | 9.0 | 0.00 | 0.00 | 0.00 | 50 | 1016.9 |
| 20260502205123 | 69 | 209 | 7.0 | 15.0 | 0.00 | 0.00 | 0.00 | 55 | 1017.0 |
| 20260502204122 | 69 | 213 | 6.0 | 14.0 | 0.00 | 0.00 | 0.00 | 55 | 1017.2 |
| 20260502203122 | 69 | 212 | 5.0 | 14.0 | 0.00 | 0.00 | 0.00 | 54 | 1017.2 |
| 20260502202123 | 69 | 217 | 5.0 | 13.0 | 0.00 | 0.00 | 0.00 | 55 | 1017.3 |
| 20260502201122 | 68 | 222 | 6.0 | 14.0 | 0.00 | 0.00 | 0.00 | 57 | 1017.4 |
| 20260502200122 | 68 | 227 | 6.0 | 15.0 | 0.00 | 0.00 | 0.00 | 58 | 1017.5 |
| 20260502195123 | 68 | 256 | 4.0 | 12.0 | 0.00 | 0.00 | 0.00 | 56 | 1017.7 |
| 20260502194122 | 69 | 228 | 6.0 | 13.0 | 0.00 | 0.00 | 0.00 | 59 | 1017.8 |
| 20260502193122 | 68 | 204 | 4.0 | 13.0 | 0.00 | 0.00 | 0.00 | 59 | 1017.8 |
| 20260502192123 | 66 | 226 | 7.0 | 17.0 | 0.00 | 0.00 | 0.00 | 62 | 1017.8 |
| 20260502191122 | 68 | 220 | 6.0 | 16.0 | 0.00 | 0.00 | 0.00 | 59 | 1017.9 |